Regional Weather Roundup
Issued by NWS

Home | Current Version | Previous Version | Graphics & Text | Print | Product List | Glossary Off
Versions: 1 2 3 4 5 6 7 8 9 10 11 12 13 14 15 16 17 18 19 20 21 22 23 24 25 26 27 28 29 30 31 32 33 34 35 36 37 38 39 40 41 42 43 44 45 46 47 48 49 50

179
ASUS43 KMPX 301601
RWRMN
WEATHER ROUNDUP FOR MINNESOTA
NATIONAL WEATHER SERVICE TWIN CITIES/CHANHASSEN MN
1100 AM CDT SUN APR 30 2017


NOTE: "FAIR" INDICATES FEW OR NO CLOUDS BELOW 12,000 FEET WITH NO
SIGNIFICANT WEATHER AND/OR OBSTRUCTIONS TO VISIBILITY. N/A MEANS
CURRENT SKY AND/OR WEATHER CONDITIONS ARE NOT AVAILABLE.

MNZ060>063-068>070-301700-
   Twin Cities Metro

CITY           SKY/WX    TMP DP  RH WIND       PRES   REMARKS
TWIN CITIES    LGT RAIN  42  32  67 NE9       30.01S
ST PAUL        CLOUDY    42  35  76 NE7       30.02F
CRYSTAL        LGT RAIN  44  28  53 NE14G20   30.00F
BLAINE         LGT RAIN  45  32  61 NE12      30.01S
LAKEVILLE      DRIZZLE   39  34  81 NE13G20   29.99R
EDEN PRAIRIE   LGT RAIN  43  31  62 E10       30.00R
SOUTH ST PAUL  CLOUDY    42  32  68 NE7       30.00S
LAKE ELMO      LGT RAIN  41  34  75 NE8G16    30.02S
$$
MNZ001>005-007-008-013>017-022>024-027-028-301700-
   Northwest Minnesota

CITY           SKY/WX    TMP DP  RH WIND       PRES   REMARKS
BEMIDJI        MOSUNNY   47  21  36 E8        30.13F
HALLOCK        SUNNY     55  25  30 S10       30.10F
ROSEAU         MOSUNNY   54  25  32 SE6       30.13F
WARROAD        CLOUDY    52  27  37 SE6       30.14F
THIEF RVR FALL MOSUNNY   51  22  31 E10       30.13F
CROOKSTON      SUNNY     55  23  28 SE8       30.11F
FOSSTON        MOSUNNY   52  25  35 E7        30.11F
DETROIT LAKES  MOSUNNY   46  19  34 E9        30.09F
MOORHEAD       MOSUNNY   54  21  28 NE6       30.08F
PARK RAPIDS    MOSUNNY   50  18  28 NE10G17   30.09F
MAHNOMEN       FAIR      51  19  27 E9G16     30.09F
$$
MNZ006-009>011-018-025>026-301700-
   North Central Minnesota

CITY           SKY/WX    TMP DP  RH WIND       PRES   REMARKS
BAUDETTE       CLOUDY    52  19  27 SE8       30.14F
FLAG ISLAND    CLOUDY    41  28  60 S8        30.15F
INTL FALLS     MOSUNNY   50  22  33 E9        30.17F
WASKISH        PTSUNNY   52  23  32 E7        30.13F
BIG FORK       MOSUNNY   52  19  28 E8        30.13F
LONGVILLE      CLOUDY    46  21  36 E8G16     30.11S
GRAND RAPIDS   CLOUDY    46  20  35 VRB6      30.14F
CRANE LAKE     SUNNY     48  18  29 NE7       30.19S
ORR            CLOUDY    52  12  20 E7        30.13F
COOK           MOSUNNY   48  21  34 E7        30.15F
WALKER         FAIR      44  22  40 E9        30.12F
$$
MNZ012-019>021-037-301700-
   Northeast Minnesota

CITY           SKY/WX    TMP DP  RH WIND       PRES   REMARKS
DULUTH         MOSUNNY   45  25  45 E10       30.11F
ELY            MOSUNNY   48  16  27 E10G20    30.14F
HIBBING        MOSUNNY   46  21  37 E13G20    30.12F
EVELETH        CLOUDY    47  10  21 E9G16     30.13F
DULUTH HARBOR  CLOUDY    39  34  81 NE17      30.15S
TWO HARBORS    CLOUDY    46  30  53 E17       30.12S
SILVER BAY     CLOUDY    45  27  49 E15       30.12F
GRAND MARAIS     N/A     44  30  57 NE10      30.18S
G MARAIS ARPRT CLOUDY    45  18  33 NE16      30.16F
$$
MNZ029>031-032-039>041-046>048-054>057-064-301700-
   West Central Minnesota

CITY           SKY/WX    TMP DP  RH WIND       PRES   REMARKS
FERGUS FALLS   SUNNY     48  19  32 E14       30.06F
WHEATON        CLOUDY    50  18  27 NE13      30.07S
MORRIS         MOSUNNY   50  21  32 NE15      30.03S
ALEXANDRIA     CLOUDY    46  22  38 E17       30.06F
ELBOW LAKE     FAIR      48  20  33 NE12G18   30.06S
WADENA         MOSUNNY   48  25  40 NE12      30.07F
GLENWOOD       CLOUDY    45  23  42 NE16      30.06R
APPLETON       CLOUDY    48  19  32 NE13G18   30.03F
BENSON         PTSUNNY   48  12  23 E12       30.06S
ORTONVILLE     CLOUDY    46  25  42 NE12      30.03F
MADISON        CLOUDY    48  27  43 NE10G17   30.03S
WILLMAR        FAIR      45  25  45 NE13      30.05S
$$
MNZ033>034-036-042>043-049>051-058-059-301700-
   Central Minnesota

CITY           SKY/WX    TMP DP  RH WIND       PRES   REMARKS
ST CLOUD       CLOUDY    41  25  53 NE9       30.06R
SAUK CENTRE    FAIR      42  24  49 NE10      30.06S
PAYNESVILLE    CLOUDY    42  23  47 NE9       30.06R
AITKIN         CLOUDY    46  18  31 NE8       30.09S
PINE RIVER     CLOUDY    46  27  46 NE9       30.13S
BRAINERD       CLOUDY    45  23  42 NE13      30.10R
STAPLES        MOSUNNY   45  18  33 E10G16    30.09R
LONG PRAIRIE   FAIR      43  27  52 NE12      30.07S
LITTLE FALLS   CLOUDY    43  23  45 NE6       30.08R
LITCHFIELD     LGT RAIN  39  30  70 N10       30.04R
BUFFALO        PTSUNNY   42  26  52 N12G18    30.04R
MAPLE LAKE     CLOUDY    41  31  66 N7        30.05R
HUTCHINSON     LGT RAIN  40  32  71 N8        30.02S
$$
MNZ037-044-045-052-053-301700-
   East Central Minnesota

CITY           SKY/WX    TMP DP  RH WIND       PRES   REMARKS
PRINCETON      CLOUDY    43  27  52 N10       30.05S
MORA           CLOUDY    41  25  52 NE7       30.08F
CAMBRIDGE      CLOUDY    45  28  53 N7        30.03F
RUSH CITY      CLOUDY    42  26  54 NE10      30.05F
MOOSE LAKE     CLOUDY    43  25  49 NE7       30.09S
HINCKLEY       CLOUDY    43  28  56 NE9       30.08S
CLOQUET        CLOUDY    43  19  39 E10G16    30.12R
MCGREGOR       CLOUDY    45  23  42 E10       30.10S
$$
MNZ071>073-080-081-089-090-097-098-301700-
   Southwest Minnesota

CITY           SKY/WX    TMP DP  RH WIND       PRES   REMARKS
MONTEVIDEO     CLOUDY    45  25  45 E14       30.03F
GRANITE FALLS  LGT RAIN  42  29  60 NE10G18   30.05R
CANBY          CLOUDY    46  27  48 NE13      30.02F
MARSHALL       LGT RAIN  37  33  85 NE15      30.01F
REDWOOD FALLS  LGT RAIN  40  31  70 N7        30.01S
OLIVIA         LGT RAIN  37  32  81 NE13      30.02S
PIPESTONE      DRIZZLE   37  30  75 NE16G25   29.93F
WINDOM         LGT RAIN  39  36  87 N20       29.94F
WORTHINGTON    LGT RAIN  38  35  89 NE25      29.90F
JACKSON        CLOUDY    37  36  93 NE20G28   29.91F
TRACY          LGT RAIN  38  35  88 NE15      29.98F
SLAYTON        LGT RAIN  35  33  94 N14G21    29.96F WCI  25
$$
MNZ065>067-074>077-082>085-091>093-301700-
   South Central Minnesota

CITY           SKY/WX    TMP DP  RH WIND       PRES   REMARKS
MANKATO        LGT RAIN  40  35  83 NE15      29.97S
NEW ULM        LGT RAIN  41  34  75 NE10G16   29.97F
ST JAMES       LGT RAIN  39  36  87 N15       29.96F
FAIRMONT       CLOUDY    39  36  89 NE20      29.92F
GLENCOE        LGT RAIN  42  33  72 N8        30.00R
FARIBAULT      DRIZZLE   41  34  75 N9        29.97S
OWATONNA       DRIZZLE   41  34  75 NE10G16   29.96S
WASECA         DRIZZLE   39  34  81 NE15G21   29.96F
ALBERT LEA     CLOUDY    37  37 100 E18       29.92F FOG
$$
MNZ078>079-086>088-094>096-301700-
   Southeast Minnesota

CITY           SKY/WX    TMP DP  RH WIND       PRES   REMARKS
ROCHESTER      CLOUDY    41  34  76 E16       29.95R
RED WING       CLOUDY    45  28  53 E12G17    29.97F
STANTON        DRIZZLE   42  34  71 NE12      29.96F
DODGE CENTER   CLOUDY    41  32  70 E16       29.95R
WINONA         CLOUDY    43  34  70 E7        29.97S
AUSTIN         CLOUDY    41  34  75 NE18      29.92F
PRESTON        CLOUDY    40  32  73 NE9G16    29.94S
$$
ABBREVIATIONS USED IN REMARKS
   TC - TEMPERATURES IN CELSIUS
  WCI - WIND CHILL INDEX
   HX - HEAT INDEX
  VSB - VISIBILITY
$$




USA.gov is the U.S. government's official web portal to all federal, state and local government web resources and services.